Terminal Aerodrome Forecast
Issued by NWS Cleveland, OH

Home | Current Version | Previous Version | Graphics & Text | Print | Product List | Glossary Off
Versions: 1 2 3 4 5 6 7 8 9 10 11 12 13 14 15 16 17 18 19 20 21

230
FTUS41 KCLE 131807 AAA
TAFYNG
TAF AMD
KYNG 131807Z 1318/1418 30014G20KT 6SM -SHSN BKN035
      TEMPO 1318/1322 2SM -SHSN OVC025
     FM140200 29006KT P6SM VCSH BKN035
     FM141700 14004KT P6SM BKN035=

USA.gov is the U.S. government's official web portal to all federal, state and local government web resources and services.